KB9JNN Weather Reports


time (UTC)temp
C
wind
direction
speed
KPH
gust
KPH
rain 1hr
cm
rain 24hr
cm
rain mn
cm
humidity
%
barometer
mb
20260505124533 6 233 11.3 19.3 0.00 0.00 0.00 57 1007.7
20260505123033 6 241 9.7 17.7 0.00 0.00 0.00 59 1007.3
20260505121541 6 236 8.0 14.5 0.00 0.00 0.00 62 1007.1
20260505120046 5 198 4.8 11.3 0.00 0.00 0.00 65 1006.7
20260505114536 3 225 3.2 9.7 0.00 0.00 0.00 65 1006.4
20260505113034 3 220 0.0 3.2 0.00 0.00 0.00 65 1006.3
20260505111531 3 0 0.0 3.2 0.00 0.00 0.00 65 1006.3
20260505101541 3 200 0.0 4.8 0.00 0.00 0.00 65 1005.7
20260505100031 3 184 0.0 3.2 0.00 0.00 0.00 63 1005.7
20260505094532 3 197 0.0 4.8 0.00 0.00 0.00 62 1005.7
20260505093036 3 184 0.0 3.2 0.00 0.00 0.00 61 1005.8
20260505091538 4 210 0.0 1.6 0.00 0.00 0.00 58 1005.4
20260505090036 5 214 0.0 4.8 0.00 0.00 0.00 57 1005.0
20260505084541 5 214 1.6 6.4 0.00 0.00 0.00 55 1004.9
20260505083033 5 221 3.2 6.4 0.00 0.00 0.00 55 1004.5
20260505081537 6 252 4.8 16.1 0.00 0.00 0.00 52 1004.3
20260505080036 6 271 8.0 14.5 0.00 0.00 0.00 50 1004.4
20260505074537 7 288 6.4 17.7 0.00 0.00 0.00 49 1004.3
20260505073042 7 255 11.3 30.6 0.00 0.00 0.00 48 1004.2
20260505071533 7 271 9.7 19.3 0.00 0.00 0.00 51 1004.2
20260505070040 7 247 8.0 14.5 0.00 0.00 0.00 51 1004.3
20260505064533 7 248 9.7 22.5 0.00 0.00 0.00 49 1004.1
20260505063035 8 259 14.5 24.1 0.00 0.00 0.00 46 1004.0
20260505061540 8 246 14.5 25.7 0.00 0.00 0.00 47 1004.1
20260505060034 8 281 16.1 27.4 0.00 0.00 0.00 49 1003.8
20260505054538 8 264 16.1 32.2 0.00 0.00 0.00 48 1003.7
20260505053036 9 255 16.1 30.6 0.00 0.00 0.00 47 1003.5
20260505051536 9 250 19.3 35.4 0.00 0.00 0.00 47 1003.2
20260505041546 11 252 19.3 27.4 0.00 0.00 0.00 47 1001.8
20260505040048 11 229 12.9 20.9 0.00 0.00 0.00 47 1001.5
20260505034536 11 243 14.5 33.8 0.00 0.00 0.00 45 1001.3
20260505033030 12 207 16.1 30.6 0.00 0.00 0.00 47 1000.9
20260505031539 12 257 17.7 27.4 0.00 0.00 0.00 45 1000.6
20260505030032 12 283 11.3 20.9 0.00 0.00 0.00 46 999.8
20260505024543 13 251 16.1 30.6 0.00 0.00 0.00 43 999.0
20260505023038 13 248 16.1 29.0 0.00 0.00 0.00 43 999.1
20260505021534 14 238 17.7 32.2 0.00 0.00 0.00 41 999.2
20260505020036 15 243 17.7 30.6 0.00 0.00 0.00 37 999.1
20260505014553 15 251 17.7 30.6 0.00 0.00 0.00 34 998.6
20260505013035 15 233 14.5 27.4 0.00 0.00 0.00 33 998.2
20260505011535 16 255 17.7 30.6 0.00 0.00 0.00 31 998.0
20260505010033 16 252 14.5 29.0 0.00 0.00 0.00 34 997.6
20260505004540 17 239 16.1 32.2 0.00 0.00 0.00 33 997.3
20260505003032 17 236 14.5 30.6 0.00 0.00 0.00 34 997.0
20260505001535 17 236 16.1 27.4 0.00 0.00 0.00 34 996.9
20260505000045 18 241 17.7 29.0 0.00 0.00 0.00 33 996.7
20260504234538 18 224 20.9 33.8 0.00 0.00 0.00 32 996.4
20260504233043 18 243 17.7 32.2 0.00 0.00 0.00 32 996.3
20260504231532 19 239 22.5 32.2 0.00 0.00 0.00 32 996.2
20260504230038 20 266 17.7 33.8 0.00 0.00 0.00 34 996.1
20260504224539 20 224 16.1 35.4 0.00 0.00 0.00 35 996.0
20260504223052 21 229 19.3 37.0 0.00 0.00 0.00 35 995.8
20260504221538 21 243 25.7 37.0 0.00 0.00 0.00 34 995.5
20260504220036 21 252 20.9 35.4 0.00 0.00 0.00 36 995.4
20260504214535 21 228 19.3 35.4 0.00 0.00 0.00 39 995.3
20260504213049 22 245 22.5 35.4 0.00 0.00 0.00 36 995.0
20260504211535 22 217 24.1 43.5 0.00 0.00 0.00 35 995.0
20260504210040 23 243 22.5 41.8 0.00 0.00 0.00 36 994.7
20260504204544 23 226 12.9 29.0 0.00 0.00 0.00 39 994.8
20260504203042 23 224 17.7 32.2 0.00 0.00 0.00 37 994.8
20260504201535 23 205 16.1 30.6 0.00 0.00 0.00 36 994.7
20260504200035 23 207 11.3 25.7 0.00 0.00 0.00 37 994.9
20260504194533 23 206 17.7 33.8 0.00 0.00 0.00 36 994.9
20260504193030 23 193 20.9 38.6 0.00 0.00 0.00 35 994.9
20260504191536 23 217 20.9 30.6 0.00 0.00 0.00 35 995.0
20260504190037 23 223 17.7 35.4 0.00 0.00 0.00 34 994.9
20260504184535 23 189 17.7 37.0 0.00 0.00 0.00 33 995.1
20260504183034 23 229 17.7 45.1 0.00 0.00 0.00 33 995.1
20260504181543 23 240 22.5 41.8 0.00 0.00 0.00 33 995.1
20260504180035 23 198 20.9 37.0 0.00 0.00 0.00 35 994.9
20260504174536 23 174 20.9 40.2 0.00 0.00 0.00 34 995.1
20260504173032 22 208 17.7 40.2 0.00 0.00 0.00 34 995.2
20260504171542 23 191 25.7 37.0 0.00 0.00 0.00 33 995.4